Home   Weather   Paderborn   Past weeks

Flag for Germany Past Weather in Paderborn, North Rhine-Westphalia, Germany — Yesterday and Last 2 Weeks

Now
66 °F

Passing clouds.


Feels Like: 66 °F
Forecast: 64 / 73 °F
Wind: 16 mph from West

Location: Paderborn / Lippstadt

Current Time: Sep 28, 2016 at 3:43:02 PM

Latest Report: Sep 28, 2016 at 2:50 PM


Visibility: N/A

Pressure: 30.24 "Hg

Humidity: 60%

Dew Point: 52 °F

Location of PaderbornLocation

Past Weather in Paderborn — Graph

°F

Paderborn Temperature Yesterday

Maximum temperature yesterday: 72 °F (at 4:20 PM)
Minimum temperature yesterday: 50 °F (at 1:50 AM)
Average temperature yesterday: 59 °F

High & Low Weather Summary for the Past Weeks

 TemperatureHumidityPressure
High90 °F (Sep 13, 1:50 PM)94% (Sep 17, 3:20 PM)30.33 "Hg (Sep 17, 3:20 PM)
Low43 °F (Sep 21, 5:50 AM)25% (Sep 13, 5:20 PM)29.83 "Hg (Sep 15, 4:20 PM)
Average63 °F63%30.09 "Hg
* Reported Sep 13 1:20 PM — Sep 28 1:50 PM, Paderborn, Weather by CustomWeather, © 2016

Note: Actual official high and low records may vary slightly from our data, if they occured in-between our weather recording intervals... More about our weather records

Advertising

Paderborn Weather History for the Previous 24 Hours

Scroll right to see more
 ConditionsComfort  
Time TempWeatherWind HumidityBarometerVisibility
1:50 PM
Wed, Sep 28
64 °FPartly sunny.15 mph68%30.24 "HgN/A
1:20 PM63 °FPartly sunny.13 mph73%30.24 "HgN/A
12:50 PM63 °FPartly sunny.12 mph73%30.24 "HgN/A
12:20 PM63 °FPartly sunny.15 mph73%30.24 "HgN/A
11:50 AM64 °FPartly sunny.16 mph64%30.24 "HgN/A
11:20 AM63 °FScattered showers. Partly sunny.13 mph64%30.27 "HgN/A
10:50 AM63 °FPartly sunny.14 mph64%30.24 "HgN/A
10:20 AM63 °FPartly sunny.15 mph59%30.24 "HgN/A
9:50 AM63 °FScattered clouds.15 mph59%30.24 "HgN/A
9:20 AM63 °FPartly sunny.14 mph56%30.24 "HgN/A
8:50 AM61 °FPartly sunny.14 mph55%30.24 "HgN/A
8:20 AM59 °FScattered clouds.15 mph59%30.24 "HgN/A
7:50 AM57 °FSunny.13 mph63%30.24 "Hg10 mi
7:20 AM59 °FClear.14 mph59%30.24 "Hg10 mi
6:50 AM59 °FClear.10 mph55%30.24 "Hg10 mi
6:20 AM59 °FClear.14 mph55%30.24 "Hg10 mi
5:50 AM57 °FPassing clouds.13 mph63%30.24 "HgN/A
5:20 AM55 °FClear.12 mph67%30.27 "Hg10 mi
4:50 AM57 °FClear.12 mph67%30.27 "Hg10 mi
4:20 AM59 °FClear.10 mph63%30.27 "Hg10 mi
3:50 AM59 °FClear.10 mph68%30.27 "Hg10 mi
3:20 AM59 °FClear.12 mph68%30.27 "Hg10 mi
2:50 AM59 °FClear.13 mph68%30.27 "Hg10 mi
1:50 AM61 °FClear.12 mph63%30.27 "Hg10 mi
1:20 AM61 °FClear.12 mph59%30.30 "Hg10 mi
12:50 AM61 °FClear.10 mph59%30.30 "Hg10 mi
12:20 AM61 °FClear.10 mph59%30.30 "Hg10 mi
11:50 PM
Tue, Sep 27
61 °FClear.9 mph59%30.30 "Hg10 mi
11:20 PM61 °FClear.10 mph59%30.30 "Hg10 mi
10:50 PM61 °FClear.7 mph59%30.30 "Hg10 mi
10:20 PM61 °FClear.8 mph55%30.30 "Hg10 mi
9:50 PM61 °FClear.9 mph55%30.33 "Hg10 mi
9:20 PM61 °FPassing clouds.5 mph55%30.30 "HgN/A
8:50 PM57 °FClear.5 mph72%30.30 "Hg10 mi
8:20 PM61 °FClear.3 mph63%30.30 "Hg10 mi
7:50 PM59 °FClear.2 mph72%30.30 "Hg10 mi
7:20 PM63 °FClear.2 mph64%30.30 "Hg10 mi
6:50 PM66 °FSunny.1 mph56%30.30 "Hg10 mi
6:20 PM68 °FSunny.2 mph53%30.30 "Hg10 mi
5:50 PM70 °FSunny.1 mph50%30.27 "Hg10 mi
5:20 PM68 °FPassing clouds.5 mph53%30.27 "HgN/A
4:50 PM70 °FPassing clouds.6 mph46%30.27 "HgN/A
4:20 PM72 °FScattered clouds.3 mph44%30.27 "HgN/A
3:50 PM70 °FScattered clouds.3 mph46%30.27 "HgN/A
3:20 PM70 °FScattered clouds.3 mph46%30.30 "HgN/A
Weather by CustomWeather, © 2016

See weather overviewHow to use our weather pages